986 
ASUS46 KSEW 272210
RWRWA 

WASHINGTON REGIONAL WEATHER ROUNDUP
NATIONAL WEATHER SERVICE SEATTLE WA
200 PM PST WED JAN 27 2021

NOTE:"FAIR" INDICATES FEW OR NO CLOUDS BELOW 12,000 FEET WITH NO 
SIGNIFICANT WEATHER AND/OR OBSTRUCTIONS TO VISIBILITY.

WAZ507-509-555>559-272300-
SEATTLE, TACOMA, EVERETT, AND VICINITY
  
CITY           SKY/WX    TMP DP  RH WIND       PRES   REMARKS
EVERETT        SUNNY     44  33  65 SE6       29.58R                  
BOEING FIELD   MOSUNNY   44  35  70 CALM      29.59S                  
RENTON         MOSUNNY   45  34  65 N5        29.58S                  
SEATAC AIRPORT PTSUNNY   44  36  73 W6        29.57S                  
JBLM-MCCHORD   NOT AVBL                                               
PUYALLUP       FAIR      46  36  66 VRB5      29.56F                  
BREMERTON      MOSUNNY   41  37  86 W5        29.58S                  
JBLM-FT LEWIS  NOT AVBL                                               
TACOMA NARROWS PTSUNNY   40  35  83 NE3       29.58S                  
$$
 
WAZ001-503-506-510-514-515-272300-
NORTH INTERIOR
  
CITY           SKY/WX    TMP DP  RH WIND       PRES   REMARKS
BELLINGHAM     PTSUNNY   42  36  79 NE9       29.59S                  
FRIDAY HARBOR  CLOUDY    42  35  76 E7        29.59R                  
EASTSOUND      CLOUDY    41  37  87 VRB3      29.59R                  
PORT ANGELES   MOSUNNY   42  34  73 N3        29.56R                  
EDIZ HOOK      FAIR      46  37  69 N3        29.56S                  
PORT TOWNSEND  FAIR      45  37  76 VRB7G17   29.55S                  
NAS WHIDBEY    PTSUNNY   47  35  63 E13       29.61S                  
ARLINGTON      MOSUNNY   46  32  58 SE7       29.59S                  
BURLINGTON     CLOUDY    50  36  57 E10       29.59S                  
$$
 
WAZ020-022-039-040-504-511-512-272300-
SOUTHWEST INTERIOR
  
CITY           SKY/WX    TMP DP  RH WIND       PRES   REMARKS
SHELTON        PTSUNNY   42  37  82 N5        29.55S                  
OLYMPIA        PTSUNNY   45  37  73 CALM      29.56F                  
CHEHALIS       FAIR      43  39  87 CALM      29.55F                  
KELSO          LGT RAIN  43  39  86 S6        29.58R                  
VANCOUVER      LGT RAIN  43  37  79 CALM      29.57S                  
SCAPPOOSE, OR  LGT RAIN  41  37  86 SE3       29.57S                  
PORTLAND, OR   LGT RAIN  44  37  76 SE7       29.57S                  
$$
 
WAZ021-516-517-272300-
WASHINGTON COAST
  
CITY           SKY/WX    TMP DP  RH WIND       PRES   REMARKS
FORKS          SUNNY     47  37  68 S5        29.54S                  
HOQUIAM        PTSUNNY   42  35  76 E14       29.54S                  
ASTORIA, OR    CLOUDY    42  35  76 SE5       29.53S                  
$$
 
WAZ019-023-024-040-567>569-272300-
CASCADE MOUNTAINS AND COLUMBIA GORGE
  
CITY           SKY/WX    TMP DP  RH WIND       PRES   REMARKS
STAMPEDE PASS  CLOUDY    28  25  88 VRB6      29.50S FOG              
TROUTDALE, OR  CLOUDY    44  36  73 E12       29.57S                  
HOOD RIVER, OR CLOUDY    39  34  81 CALM      29.61F                  
THE DALLES, OR PTSUNNY   43  34  70 CALM      29.61S                  
$$

WAZ026-027-041>044-520-521-272300-
EAST SLOPES
  
CITY           SKY/WX    TMP DP  RH WIND       PRES   REMARKS
OMAK           LGT SNOW  33  30  88 CALM      29.67R FOG              
WENATCHEE      CLOUDY    34  29  82 CALM      29.65R                  
ELLENSBURG     MOSUNNY   35  29  78 S3        29.60S                  
YAKIMA         CLOUDY    37  30  75 CALM      29.64R                  
SUNNYSIDE ARPT CLOUDY    38  33  84 S3        29.64S                  
YAKIMA TC      NOT AVBL                                               
$$

WAZ028-034-035-272300-
COLUMBIA BASIN
  
CITY           SKY/WX    TMP DP  RH WIND       PRES   REMARKS
EPHRATA        CLOUDY    35  32  88 N7        29.64R                  
MOSES LAKE     CLOUDY    38  34  85 CALM      29.65R                  
PASCO          PTSUNNY   45  37  73 W9        29.65S                  
RICHLAND ARPT  MOCLDY    44  37  77 NW7       29.66R                  
HERMISTON, OR  CLOUDY    52  29  41 SW10      29.61R                  
$$

WAZ036>038-272300-
NORTHEAST WASHINGTON
  
CITY           SKY/WX    TMP DP  RH WIND       PRES   REMARKS
SPOKANE GEIGER PTSUNNY   36  26  67 E7        29.65R                  
SPOKANE FELTS  CLOUDY    38  28  67 CALM      29.67S                  
FAIRCHILD AFB  NOT AVBL                                               
COEURDALENE,ID CLOUDY    33  28  81 N9        29.68R                  
DEER PARK      CLOUDY    34  29  82 N5        29.67S                  
$$

WAZ029>033-272300-
SOUTHEAST WASHINGTON
  
CITY           SKY/WX    TMP DP  RH WIND       PRES   REMARKS
PULLMAN        SUNNY     41  26  55 SE10      29.66R                  
LEWISTON, ID   MOSUNNY   47  26  44 SE5       29.67R                  
WALLA WALLA    CLOUDY    48  27  44 S15G36    29.64R                  
PENDLETON, OR  CLOUDY    47  31  53 S13       29.61S                  
$$